MiTEE 1
1 47314U 21002F 23019.62576502 .00078993 00000-0 17632-2 0 9999
2 47314 60.6768 250.0584 0034191 95.9592 264.5402 15.42407829111777
ExoCube 2
1 47319U 21002L 23019.24952151 .00022919 00000-0 77931-3 0 9996
2 47319 60.6817 269.0270 0038852 102.6536 257.8903 15.29732214111361
UVSQ-SAT
1 47438U 21006AB 23019.42956496 .00017465 00000-0 83451-3 0 9992
2 47438 97.4102 79.0586 0009722 241.1012 118.9248 15.19044658110027
YUSAT 1
1 47439U 21006AC 23019.63029089 .00024738 00000-0 11419-2 0 9990
2 47439 97.4108 79.5971 0009378 239.5876 120.4432 15.20169189110070
SOMP 2b
1 47445U 21006AJ 23019.42132169 .00018708 00000-0 90750-3 0 9994
2 47445 97.4073 78.5045 0009393 246.1003 113.9247 15.18506453110002
IDEASSat
1 47458U 21006AX 23019.42761952 .00015574 00000-0 76149-3 0 9990
2 47458 97.4162 79.2027 0008688 244.7432 115.2902 15.18275860109993
CubeSX-Sirius-HSE
1 47951U 21022V 23019.82470891 .00012754 00000-0 78748-3 0 9993
2 47951 97.5134 279.8247 0021594 121.7307 325.8711 15.09829316100617
CubeSX-HSE
1 47952U 21022W 23019.80132382 .00013457 00000-0 82931-3 0 9992
2 47952 97.5122 279.8370 0021566 122.5112 311.0228 15.09885919100615
KSU-Cubesat
1 47954U 21022Y 23019.44140443 .00013063 00000-0 79547-3 0 9993
2 47954 97.5145 279.7008 0021261 122.1460 238.1836 15.10335798100298
GRBAlpha
1 47959U 21022AD 23019.79726146 .00013780 00000-0 84781-3 0 9998
2 47959 97.5137 279.8932 0021608 123.3911 325.1393 15.09939286 99438
Orbicraft-Zorkiy
1 47960U 21022AE 23019.73951351 .00014622 00000-0 89102-3 0 9990
2 47960 97.5150 280.0962 0020993 122.0350 322.7639 15.10287935100125
STECCO
1 47962U 21022AG 23019.73446808 .00022970 00000-0 12765-2 0 9993
2 47962 97.5121 281.4845 0016408 113.3298 332.5798 15.13587739 99535
DO-111
1 47963U 21022AH 23019.16744679 .00059723 00000-0 24227-2 0 9990
2 47963 97.5163 284.0637 0016377 102.6876 257.6193 15.24272648 99660
MO-110
1 47964U 21022AJ 23019.30507060 .00019445 00000-0 10655-2 0 9995
2 47964 97.5150 281.4849 0019029 111.0980 249.2288 15.14084489 99496
FEES
1 48082U 21022AL 23019.47090987 .00030785 00000-0 15833-2 0 9993
2 48082 97.5152 281.9530 0015114 105.8794 254.4106 15.16290479 99247
CSS
1 48274U 21035A 23019.78136519 .00018912 00000-0 22569-3 0 9999
2 48274 41.4765 340.5912 0004795 351.9285 82.4154 15.60586083 98627
TUBIN
1 48900U 21059X 23019.78692556 .00012472 00000-0 64920-3 0 9991
2 48900 97.5774 153.0145 0011017 76.4417 61.0973 15.16116837 86661
IT-SPINS
1 49017U 21013G 23019.42491162 .00030150 00000-0 96184-3 0 9992
2 49017 51.5973 82.5108 0007018 130.4830 229.6763 15.32226838 86821
LEDSAT
1 49069U 21073D 23019.14448756 .00013128 00000-0 78679-3 0 9990
2 49069 97.5021 92.7564 0024561 275.1008 84.7419 15.10848265 78376
CUTE
1 49263U 21088D 23019.42265411 .00008607 00000-0 60392-3 0 9997
2 49263 97.5652 88.0081 0020102 52.9292 307.3769 15.05241291 71888
TeikyoSat 4
1 49396U 21102B 23019.42267129 .00003364 00000-0 26466-3 0 9998
2 49396 97.5426 75.8826 0013754 248.8965 111.0790 15.01430908 65443
Z-Sat
1 49399U 21102E 23019.74216926 .00005394 00000-0 39794-3 0 9998
2 49399 97.5104 77.3464 0021393 210.2528 149.7464 15.03507173 65571
KOSEN 1
1 49402U 21102H 23019.37158033 .00008125 00000-0 57640-3 0 9991
2 49402 97.5022 77.2841 0021146 203.5789 156.4470 15.04830069 65568
HO-113
1 50466U 21131B 23019.76500483 .00000940 00000-0 32147-3 0 9990
2 50466 98.5644 101.7443 0004176 211.9710 148.1224 14.38634982 56010
Tevel-3
1 50988U 22002E 23019.79643466 .00023334 00000-0 11328-2 0 9998
2 50988 97.4566 88.3376 0009512 40.1813 55.0054 15.18432085 56195
Tevel-8
1 50989U 22002F 23019.80909512 .00021248 00000-0 10341-2 0 9994
2 50989 97.4576 88.3934 0009572 38.4252 55.8797 15.18366745 56191
Tevel-5
1 50998U 22002Q 23019.80938418 .00024022 00000-0 11460-2 0 9997
2 50998 97.4561 88.5883 0011125 32.6718 62.1831 15.19020869 56218
Tevel-6
1 50999U 22002R 23019.80817012 .00024013 00000-0 11453-2 0 9996
2 50999 97.4559 88.5849 0011066 31.9802 62.3537 15.19028008 56216
Tevel-1
1 51013U 22002AF 23019.80248297 .00021656 00000-0 10530-2 0 9992
2 51013 97.4562 88.3061 0009403 38.9821 55.7317 15.18394897 56192
Grizu-263a
1 51025U 22002AT 23019.67007767 .00054072 00000-0 21466-2 0 9993
2 51025 97.4732 90.6429 0011304 31.6186 328.5729 15.25091977 56284
NO-116
1 51031U 22002AZ 23019.17600580 .00029301 00000-0 12943-2 0 9994
2 51031 97.4692 89.2467 0012302 36.5107 323.6965 15.21616137 56160
IRIS-A
1 51044U 22002BN 23019.39921534 .00013844 00000-0 72608-3 0 9997
2 51044 97.4575 87.3480 0009738 43.7836 316.4168 15.15830202 56097
Tevel-7
1 51062U 22002CG 23019.81107295 .00023419 00000-0 11386-2 0 9998
2 51062 97.4573 88.3746 0009623 36.9325 57.1187 15.18378611 56196
Tevel-4
1 51063U 22002CH 23019.81329295 .00023240 00000-0 11308-2 0 9991
2 51063 97.4579 88.3675 0009452 37.9770 55.3929 15.18354842 56193
Tevel-2
1 51069U 22002CP 23019.79845955 .00021655 00000-0 10521-2 0 9994
2 51069 97.4568 88.3172 0009373 39.5501 56.5429 15.18423184 56195
DELFI-PQ
1 51074U 22002CU 23019.44898129 .00032348 00000-0 13434-2 0 9990
2 51074 97.4822 91.0353 0012910 61.9197 298.3343 15.23684528 56263
SO-115
1 51080U 22002DA 23019.43422287 .00025454 00000-0 11434-2 0 9992
2 51080 97.4834 90.5077 0013348 64.3458 295.9154 15.21058776 56220
SO-114
1 51081U 22002DB 23019.43307335 .00026397 00000-0 11836-2 0 9992
2 51081 97.4824 90.4694 0013616 64.2487 296.0152 15.21110928 56221
OreSat0
1 52017U 22026K 23019.51786406 .00020404 00000-0 97583-3 0 9994
2 52017 97.5087 22.1336 0023425 241.5835 118.3038 15.18777082 46936
Planetum 1
1 52738U 22057G 23019.55526099 .00018374 00000-0 98141-3 0 9996
2 52738 97.5261 136.2799 0008024 138.8335 221.3504 15.15135442 36118
Foresail-1
1 52766U 22057AL 23019.74104186 .00014040 00000-0 73757-3 0 9999
2 52766 97.5366 137.1723 0014001 122.7900 14.8158 15.15728697 36169
SNUGLITE 2
1 52899U 22065F 23019.40266200 .00002402 00000-0 52423-3 0 9990
2 52899 98.0439 168.6458 0007468 328.9117 31.1640 14.58707173 29168
CTIM
1 52950U 22074G 23019.62158849 .00039306 00000-0 13404-2 0 9999
2 52950 45.0034 101.2644 0009867 341.9502 18.1040 15.29729996 30759
IO-117
1 53106U 22080B 22354.08419093 -.00000003 00000-0 00000-0 0 9991
2 53106 70.1702 21.9397 0008914 226.9685 182.2049 6.42557326 10248
AstroBioCubeSat
1 53107U 22080C 22335.48380186 -.00000003 00000-0 0000010 0 9995
2 53107 70.1769 28.4953 0013706 220.7562 139.2073 6.42110748 8949
CELESTA
1 53111U 22080G 22310.17474584 -.00000003 00000-0 00000-0 0 9995
2 53111 70.4223 37.2580 0024959 243.8956 115.9136 6.43203861 7301
RS4S
1 53306U 98067TR 23019.82460180 .01179881 74321-3 20658-2 0 9999
2 53306 51.6242 325.3752 0006793 139.7981 220.3533 16.01573724 28508
RS3S
1 53308U 98067TT 23019.76390960 .00887279 36268-3 21019-2 0 9998
2 53308 51.6278 326.4847 0006366 137.7489 222.4011 15.96143706 28547
RS1S
1 53309U 98067TU 23019.82557260 .01112434 63706-3 20812-2 0 9996
2 53309 51.6251 325.3712 0006761 141.0934 219.0563 16.00406595 28515
RS5S
1 53310U 98067TV 23019.75563481 .00922834 40071-3 20664-2 0 9999
2 53310 51.6291 326.4305 0005908 137.7652 222.3813 15.97181369 28522
